Time,TemperatureF,DewpointF,PressureIn,WindDirection,WindDirectionDegrees,WindSpeedMPH,WindSpeedGustMPH,Humidity,HourlyPrecipIn,Conditions,Clouds,dailyrainin,SoftwareType,DateUTC
2013-02-23 00:00:00,46.8,39.9,30.20,NNE,28,0.0,4.3,77,0.00,,CLR,0.00,VWS V14.01,2013-02-23 08:00:00,
2013-02-23 00:10:00,46.4,39.3,30.20,NNE,21,4.8,7.0,76,0.00,,CLR,0.00,VWS V14.01,2013-02-23 08:10:00,
2013-02-23 00:20:00,46.0,38.9,30.20,NE,40,0.0,4.8,76,0.00,,CLR,0.00,VWS V14.01,2013-02-23 08:20:00,
2013-02-23 00:30:00,45.5,38.4,30.20,North,6,4.3,5.4,76,0.00,,CLR,0.00,VWS V14.01,2013-02-23 08:30:00,
2013-02-23 00:40:00,45.3,38.2,30.20,NNE,21,3.2,5.9,76,0.00,,CLR,0.00,VWS V14.01,2013-02-23 08:40:00,
2013-02-23 00:50:00,45.3,37.9,30.20,NNE,16,3.2,5.9,75,0.00,,CLR,0.00,VWS V14.01,2013-02-23 08:50:00,
2013-02-23 01:00:00,45.3,37.5,30.20,North,11,4.3,7.5,74,0.00,,CLR,0.00,VWS V14.01,2013-02-23 09:00:00,
2013-02-23 01:10:00,44.8,37.0,30.20,North,8,4.8,6.4,74,0.00,,CLR,0.00,VWS V14.01,2013-02-23 09:10:00,
2013-02-23 01:20:00,44.6,36.5,30.20,NNE,27,3.2,5.9,73,0.00,,CLR,0.00,VWS V14.01,2013-02-23 09:20:00,
2013-02-23 01:30:00,44.4,36.7,30.20,NNE,27,0.0,3.2,74,0.00,,CLR,0.00,VWS V14.01,2013-02-23 09:30:00,
2013-02-23 01:40:00,44.1,36.3,30.17,NNE,13,0.0,3.8,74,0.00,,CLR,0.00,VWS V14.01,2013-02-23 09:40:00,
2013-02-23 01:50:00,43.9,36.5,30.17,NNW,333,5.9,5.9,75,0.00,,CLR,0.00,VWS V14.01,2013-02-23 09:50:00,
2013-02-23 02:00:00,44.4,36.7,30.17,NNW,342,4.3,7.0,74,0.00,,CLR,0.00,VWS V14.01,2013-02-23 10:00:00,
2013-02-23 02:10:00,44.4,36.3,30.17,NNW,330,0.0,4.3,73,0.00,,CLR,0.00,VWS V14.01,2013-02-23 10:10:00,
2013-02-23 02:20:00,44.2,36.2,30.17,NE,51,6.4,8.1,73,0.00,,CLR,0.00,VWS V14.01,2013-02-23 10:20:00,
2013-02-23 02:30:00,43.5,35.5,30.17,North,0,5.9,7.5,73,0.00,,CLR,0.00,VWS V14.01,2013-02-23 10:30:00,
2013-02-23 02:40:00,42.8,34.8,30.17,North,0,2.7,5.9,73,0.00,,CLR,0.00,VWS V14.01,2013-02-23 10:40:00,
2013-02-23 02:50:00,42.6,34.9,30.17,NNW,336,0.0,4.3,74,0.00,,CLR,0.00,VWS V14.01,2013-02-23 10:50:00,
2013-02-23 03:00:00,42.6,34.9,30.17,North,9,0.0,0.0,74,0.00,,CLR,0.00,VWS V14.01,2013-02-23 11:00:00,
2013-02-23 03:10:00,42.6,34.9,30.17,NNE,18,0.0,0.0,74,0.00,,CLR,0.00,VWS V14.01,2013-02-23 11:10:00,
2013-02-23 03:20:00,42.8,34.8,30.17,NNE,23,4.8,7.5,73,0.00,,CLR,0.00,VWS V14.01,2013-02-23 11:20:00,
2013-02-23 03:30:00,44.1,34.9,30.17,NNE,12,4.3,8.1,70,0.00,,CLR,0.00,VWS V14.01,2013-02-23 11:30:00,
2013-02-23 03:40:00,44.6,34.3,30.14,ENE,70,4.8,7.5,67,0.00,,CLR,0.00,VWS V14.01,2013-02-23 11:40:00,
2013-02-23 03:50:00,44.4,34.2,30.14,NE,52,2.7,6.4,67,0.00,,CLR,0.00,VWS V14.01,2013-02-23 11:50:00,
2013-02-23 04:00:00,44.1,33.8,30.14,North,0,2.7,4.8,67,0.00,,CLR,0.00,VWS V14.01,2013-02-23 12:00:00,
2013-02-23 04:10:00,43.9,33.7,30.14,ENE,64,3.8,4.8,67,0.00,,CLR,0.00,VWS V14.01,2013-02-23 12:10:00,
2013-02-23 04:20:00,43.9,33.3,30.14,NNE,24,3.2,4.8,66,0.00,,CLR,0.00,VWS V14.01,2013-02-23 12:20:00,
2013-02-23 04:30:00,43.7,32.7,30.14,North,11,3.8,4.8,65,0.00,,CLR,0.00,VWS V14.01,2013-02-23 12:30:00,
2013-02-23 04:40:00,43.5,32.5,30.14,North,11,4.8,5.9,65,0.00,,CLR,0.00,VWS V14.01,2013-02-23 12:40:00,
2013-02-23 04:50:00,43.3,32.8,30.14,NNE,25,0.0,4.8,66,0.00,,CLR,0.00,VWS V14.01,2013-02-23 12:50:00,
2013-02-23 05:00:00,43.0,32.4,30.14,NE,40,3.2,4.8,66,0.00,,CLR,0.00,VWS V14.01,2013-02-23 13:00:00,
2013-02-23 05:10:00,42.4,32.3,30.11,NNE,19,0.0,4.8,67,0.00,,CLR,0.00,VWS V14.01,2013-02-23 13:10:00,
2013-02-23 05:20:00,42.3,32.1,30.14,NNE,24,3.2,4.8,67,0.00,,CLR,0.00,VWS V14.01,2013-02-23 13:20:00,
2013-02-23 05:30:00,42.1,31.9,30.14,North,5,4.8,5.9,67,0.00,,CLR,0.00,VWS V14.01,2013-02-23 13:30:00,
2013-02-23 05:40:00,41.7,31.6,30.14,North,10,3.2,5.9,67,0.00,,CLR,0.00,VWS V14.01,2013-02-23 13:40:00,
2013-02-23 05:50:00,41.7,32.0,30.14,North,10,0.0,3.2,68,0.00,,CLR,0.00,VWS V14.01,2013-02-23 13:50:00,
2013-02-23 06:00:00,41.5,31.8,30.14,North,10,0.0,2.7,68,0.00,,CLR,0.00,VWS V14.01,2013-02-23 14:00:00,
2013-02-23 06:10:00,41.2,31.8,30.17,North,10,0.0,3.2,69,0.00,,CLR,0.00,VWS V14.01,2013-02-23 14:10:00,
2013-02-23 06:20:00,41.0,31.6,30.14,NNE,19,0.0,4.3,69,0.00,,CLR,0.00,VWS V14.01,2013-02-23 14:20:00,
2013-02-23 06:30:00,41.0,31.6,30.14,NNE,14,5.4,6.4,69,0.00,,CLR,0.00,VWS V14.01,2013-02-23 14:30:00,
2013-02-23 06:40:00,41.2,31.4,30.14,North,3,0.0,5.4,68,0.00,,CLR,0.00,VWS V14.01,2013-02-23 14:40:00,
2013-02-23 06:50:00,41.2,31.4,30.14,NNE,32,3.2,4.3,68,0.00,,CLR,0.00,VWS V14.01,2013-02-23 14:50:00,
2013-02-23 07:00:00,41.2,31.8,30.14,NE,38,3.8,4.8,69,0.00,,CLR,0.00,VWS V14.01,2013-02-23 15:00:00,
2013-02-23 07:10:00,41.4,31.6,30.14,NE,56,4.8,7.0,68,0.00,,CLR,0.00,VWS V14.01,2013-02-23 15:10:00,
2013-02-23 07:20:00,41.9,32.1,30.14,NNE,12,4.8,7.0,68,0.00,,CLR,0.00,VWS V14.01,2013-02-23 15:20:00,
2013-02-23 07:30:00,43.0,32.4,30.14,NNE,29,3.8,6.4,66,0.00,,CLR,0.00,VWS V14.01,2013-02-23 15:30:00,
2013-02-23 07:40:00,43.7,33.1,30.14,ENE,59,0.0,5.9,66,0.00,,CLR,0.00,VWS V14.01,2013-02-23 15:40:00,
2013-02-23 07:50:00,44.8,33.4,30.14,ENE,63,3.8,7.0,64,0.00,,CLR,0.00,VWS V14.01,2013-02-23 15:50:00,
2013-02-23 08:00:00,45.3,33.1,30.14,ENE,66,0.0,6.4,62,0.00,,CLR,0.00,VWS V14.01,2013-02-23 16:00:00,
2013-02-23 08:10:00,46.4,32.9,30.14,NNE,13,4.3,7.0,59,0.00,,CLR,0.00,VWS V14.01,2013-02-23 16:10:00,
2013-02-23 08:20:00,47.5,32.6,30.14,East,84,4.3,7.5,56,0.00,,CLR,0.00,VWS V14.01,2013-02-23 16:20:00,
2013-02-23 08:30:00,48.4,32.5,30.14,East,87,3.2,7.0,54,0.00,,CLR,0.00,VWS V14.01,2013-02-23 16:30:00,
2013-02-23 08:40:00,48.7,33.3,30.14,NE,38,3.8,7.0,55,0.00,,CLR,0.00,VWS V14.01,2013-02-23 16:40:00,
2013-02-23 08:50:00,49.1,33.7,30.14,NE,47,3.2,5.9,55,0.00,,CLR,0.00,VWS V14.01,2013-02-23 16:50:00,
2013-02-23 09:00:00,49.6,33.7,30.14,ENE,70,0.0,6.4,54,0.00,,CLR,0.00,VWS V14.01,2013-02-23 17:00:00,
2013-02-23 09:10:00,50.2,33.7,30.14,ENE,64,4.8,7.0,53,0.00,,CLR,0.00,VWS V14.01,2013-02-23 17:10:00,
2013-02-23 09:20:00,50.7,33.3,30.14,SE,135,3.2,4.8,51,0.00,,CLR,0.00,VWS V14.01,2013-02-23 17:20:00,
2013-02-23 09:30:00,51.6,34.6,30.14,South,181,4.8,4.8,52,0.00,,CLR,0.00,VWS V14.01,2013-02-23 17:30:00,
2013-02-23 09:40:00,52.5,36.4,30.14,SE,137,0.0,4.8,54,0.00,,CLR,0.00,VWS V14.01,2013-02-23 17:40:00,
2013-02-23 09:50:00,53.4,37.7,30.14,ESE,108,2.7,5.4,55,0.00,,CLR,0.00,VWS V14.01,2013-02-23 17:50:00,
2013-02-23 10:00:00,54.5,39.1,30.14,South,186,4.8,7.0,56,0.00,,CLR,0.00,VWS V14.01,2013-02-23 18:00:00,
2013-02-23 10:10:00,55.2,39.3,30.14,SSE,151,3.8,7.0,55,0.00,,CLR,0.00,VWS V14.01,2013-02-23 18:10:00,
2013-02-23 10:20:00,55.8,38.9,30.14,SW,232,0.0,5.9,53,0.00,,CLR,0.00,VWS V14.01,2013-02-23 18:20:00,
2013-02-23 10:30:00,56.7,40.2,30.14,SSW,193,3.2,7.0,54,0.00,,CLR,0.00,VWS V14.01,2013-02-23 18:30:00,
2013-02-23 10:40:00,57.6,41.1,30.14,South,186,4.3,8.1,54,0.00,,CLR,0.00,VWS V14.01,2013-02-23 18:40:00,
2013-02-23 10:50:00,58.5,42.4,30.11,ESE,104,2.7,7.0,55,0.00,,CLR,0.00,VWS V14.01,2013-02-23 18:50:00,
2013-02-23 11:00:00,59.5,41.9,30.11,ESE,120,3.2,9.7,52,0.00,,CLR,0.00,VWS V14.01,2013-02-23 19:00:00,
2013-02-23 11:10:00,60.8,42.1,30.11,South,184,9.1,9.1,50,0.00,,CLR,0.00,VWS V14.01,2013-02-23 19:10:00,
2013-02-23 11:20:00,61.3,42.0,30.11,South,188,7.0,9.1,49,0.00,,CLR,0.00,VWS V14.01,2013-02-23 19:20:00,
2013-02-23 11:30:00,61.9,41.5,30.11,WSW,249,9.1,9.1,47,0.00,,CLR,0.00,VWS V14.01,2013-02-23 19:30:00,
2013-02-23 11:40:00,61.7,42.4,30.11,SW,223,4.3,9.9,49,0.00,,CLR,0.00,VWS V14.01,2013-02-23 19:40:00,
2013-02-23 11:50:00,61.3,42.0,30.08,SSW,196,6.4,9.1,49,0.00,,CLR,0.00,VWS V14.01,2013-02-23 19:50:00,
2013-02-23 12:00:00,61.3,41.5,30.08,West,271,4.3,9.7,48,0.00,,CLR,0.00,VWS V14.01,2013-02-23 20:00:00,
2013-02-23 12:10:00,62.2,42.3,30.08,SSW,211,6.4,9.1,48,0.00,,CLR,0.00,VWS V14.01,2013-02-23 20:10:00,
2013-02-23 12:20:00,63.0,42.4,30.05,WSW,256,6.4,10.5,47,0.00,,CLR,0.00,VWS V14.01,2013-02-23 20:20:00,
2013-02-23 12:30:00,63.3,42.2,30.05,South,191,0.0,12.6,46,0.00,,CLR,0.00,VWS V14.01,2013-02-23 20:30:00,
2013-02-23 12:40:00,63.9,42.1,30.05,SSW,201,4.8,9.1,45,0.00,,CLR,0.00,VWS V14.01,2013-02-23 20:40:00,
2013-02-23 12:50:00,64.2,42.5,30.05,SSE,148,4.8,9.7,45,0.00,,CLR,0.00,VWS V14.01,2013-02-23 20:50:00,
2013-02-23 13:00:00,64.2,42.5,30.05,SSW,209,10.5,10.5,45,0.00,,CLR,0.00,VWS V14.01,2013-02-23 21:00:00,
2013-02-23 13:10:00,64.8,42.4,30.02,North,1,3.2,10.5,44,0.00,,CLR,0.00,VWS V14.01,2013-02-23 21:10:00,
2013-02-23 13:20:00,65.3,43.4,30.02,SW,228,6.4,7.5,45,0.00,,CLR,0.00,VWS V14.01,2013-02-23 21:20:00,
2013-02-23 13:30:00,65.8,43.9,30.02,SSE,159,0.0,9.1,45,0.00,,CLR,0.00,VWS V14.01,2013-02-23 21:30:00,
2013-02-23 13:40:00,66.0,45.2,30.02,SSE,159,7.5,8.6,47,0.00,,CLR,0.00,VWS V14.01,2013-02-23 21:40:00,
2013-02-23 13:50:00,65.7,45.5,29.99,South,189,3.8,9.7,48,0.00,,CLR,0.00,VWS V14.01,2013-02-23 21:50:00,
2013-02-23 14:00:00,65.5,46.4,29.99,SSW,207,5.9,8.1,50,0.00,,CLR,0.00,VWS V14.01,2013-02-23 22:00:00,
2013-02-23 14:10:00,65.7,47.1,29.99,South,170,6.4,12.1,51,0.00,,CLR,0.00,VWS V14.01,2013-02-23 22:10:00,
2013-02-23 14:20:00,65.7,47.6,29.99,West,267,0.0,10.5,52,0.00,,CLR,0.00,VWS V14.01,2013-02-23 22:20:00,
2013-02-23 14:30:00,65.5,47.9,29.99,South,185,9.1,10.5,53,0.00,,CLR,0.00,VWS V14.01,2013-02-23 22:30:00,
2013-02-23 14:40:00,65.1,47.6,29.99,SSW,201,5.9,13.2,53,0.00,,CLR,0.00,VWS V14.01,2013-02-23 22:40:00,
2013-02-23 14:50:00,64.8,47.2,29.96,SSW,192,4.3,9.7,53,0.00,,CLR,0.00,VWS V14.01,2013-02-23 22:50:00,
2013-02-23 15:00:00,65.1,48.1,29.96,SSW,213,6.4,9.7,54,0.00,,CLR,0.00,VWS V14.01,2013-02-23 23:00:00,
2013-02-23 15:10:00,65.5,48.4,29.96,South,186,6.4,9.7,54,0.00,,CLR,0.00,VWS V14.01,2013-02-23 23:10:00,
2013-02-23 15:20:00,65.7,48.1,29.96,SSW,197,5.9,8.1,53,0.00,,CLR,0.00,VWS V14.01,2013-02-23 23:20:00,
2013-02-23 15:30:00,66.0,48.4,29.96,South,185,4.3,7.0,53,0.00,,CLR,0.00,VWS V14.01,2013-02-23 23:30:00,
2013-02-23 15:40:00,66.0,48.4,29.96,WSW,257,3.8,7.5,53,0.00,,CLR,0.00,VWS V14.01,2013-02-23 23:40:00,
2013-02-23 15:50:00,66.4,47.7,29.96,South,178,3.8,7.0,51,0.00,,CLR,0.00,VWS V14.01,2013-02-23 23:50:00,
2013-02-23 16:00:00,65.8,47.2,29.96,South,190,3.8,9.9,51,0.00,,CLR,0.00,VWS V14.01,2013-02-24 00:00:00,
2013-02-23 16:10:00,64.8,46.2,29.96,SW,214,4.8,7.5,51,0.00,,CLR,0.00,VWS V14.01,2013-02-24 00:10:00,
2013-02-23 16:20:00,64.2,47.2,29.93,SSE,161,5.9,7.0,54,0.00,,CLR,0.00,VWS V14.01,2013-02-24 00:20:00,
2013-02-23 16:30:00,63.3,46.9,29.93,SSW,205,4.8,7.5,55,0.00,,CLR,0.00,VWS V14.01,2013-02-24 00:30:00,
2013-02-23 16:40:00,63.0,47.0,29.93,WSW,240,0.0,7.0,56,0.00,,CLR,0.00,VWS V14.01,2013-02-24 00:40:00,
2013-02-23 16:50:00,63.0,47.0,29.93,ESE,123,3.2,7.0,56,0.00,,CLR,0.00,VWS V14.01,2013-02-24 00:50:00,
2013-02-23 17:00:00,63.0,47.0,29.93,ESE,122,3.8,4.3,56,0.00,,CLR,0.00,VWS V14.01,2013-02-24 01:00:00,
2013-02-23 17:10:00,62.4,47.5,29.93,East,79,7.0,7.0,58,0.00,,CLR,0.00,VWS V14.01,2013-02-24 01:10:00,
2013-02-23 17:20:00,61.3,46.9,29.93,NE,43,4.8,7.0,59,0.00,,CLR,0.00,VWS V14.01,2013-02-24 01:20:00,
2013-02-23 17:30:00,60.4,46.9,29.93,ENE,65,4.8,9.7,61,0.00,,CLR,0.00,VWS V14.01,2013-02-24 01:30:00,
2013-02-23 17:40:00,60.1,47.0,29.93,East,97,3.8,6.4,62,0.00,,CLR,0.00,VWS V14.01,2013-02-24 01:40:00,
2013-02-23 17:50:00,59.4,46.8,29.93,ENE,65,0.0,4.8,63,0.00,,CLR,0.00,VWS V14.01,2013-02-24 01:50:00,
2013-02-23 18:00:00,58.8,46.7,29.93,NE,43,6.4,6.4,64,0.00,,CLR,0.00,VWS V14.01,2013-02-24 02:00:00,
2013-02-23 18:10:00,58.3,46.6,29.96,ENE,59,3.8,6.4,65,0.00,,CLR,0.00,VWS V14.01,2013-02-24 02:10:00,
2013-02-23 18:20:00,57.9,46.6,29.96,NNE,32,4.3,4.8,66,0.00,,CLR,0.00,VWS V14.01,2013-02-24 02:20:00,
2013-02-23 18:30:00,57.4,46.5,29.96,NNE,31,3.2,6.4,67,0.00,,CLR,0.00,VWS V14.01,2013-02-24 02:30:00,
2013-02-23 18:40:00,56.8,46.8,29.96,North,6,3.2,5.9,69,0.00,,CLR,0.00,VWS V14.01,2013-02-24 02:40:00,
2013-02-23 18:50:00,56.3,46.3,29.96,North,356,3.8,3.8,69,0.00,,CLR,0.00,VWS V14.01,2013-02-24 02:50:00,
2013-02-23 19:00:00,55.9,46.3,29.96,East,83,3.8,4.8,70,0.00,,CLR,0.00,VWS V14.01,2013-02-24 03:00:00,
2013-02-23 19:10:00,55.8,46.5,29.96,NW,309,0.0,7.0,71,0.00,,CLR,0.00,VWS V14.01,2013-02-24 03:10:00,
2013-02-23 19:20:00,55.4,46.2,29.96,NE,48,3.8,4.8,71,0.00,,CLR,0.00,VWS V14.01,2013-02-24 03:20:00,
2013-02-23 19:30:00,55.0,46.2,29.96,ENE,76,7.0,9.7,72,0.00,,CLR,0.00,VWS V14.01,2013-02-24 03:30:00,
2013-02-23 19:40:00,54.9,46.4,29.96,NE,52,3.2,9.1,73,0.00,,CLR,0.00,VWS V14.01,2013-02-24 03:40:00,
2013-02-23 19:50:00,54.5,46.0,29.96,NNE,24,3.8,5.9,73,0.00,,CLR,0.00,VWS V14.01,2013-02-24 03:50:00,
2013-02-23 20:00:00,54.3,45.9,29.96,NE,35,0.0,4.3,73,0.00,,CLR,0.00,VWS V14.01,2013-02-24 04:00:00,
2013-02-23 20:10:00,53.6,45.5,29.96,NNE,13,0.0,3.8,74,0.00,,CLR,0.00,VWS V14.01,2013-02-24 04:10:00,
2013-02-23 20:20:00,53.4,45.3,29.99,NNE,13,0.0,0.0,74,0.00,,CLR,0.00,VWS V14.01,2013-02-24 04:20:00,
2013-02-23 20:30:00,53.1,45.0,29.99,NNE,13,0.0,0.0,74,0.00,,CLR,0.00,VWS V14.01,2013-02-24 04:30:00,
2013-02-23 20:40:00,52.5,44.5,29.99,NNE,13,0.0,2.7,74,0.00,,CLR,0.00,VWS V14.01,2013-02-24 04:40:00,
2013-02-23 20:50:00,52.0,44.0,29.99,NNE,13,0.0,0.0,74,0.00,,CLR,0.00,VWS V14.01,2013-02-24 04:50:00,
2013-02-23 21:00:00,51.4,43.8,29.99,NNE,13,0.0,3.2,75,0.00,,CLR,0.00,VWS V14.01,2013-02-24 05:00:00,
2013-02-23 21:10:00,51.1,43.8,30.02,WSW,258,3.8,5.4,76,0.00,,CLR,0.00,VWS V14.01,2013-02-24 05:10:00,
2013-02-23 21:20:00,50.9,43.6,29.99,West,277,0.0,4.8,76,0.00,,CLR,0.00,VWS V14.01,2013-02-24 05:20:00,
2013-02-23 21:30:00,50.7,42.8,29.99,West,272,3.2,4.3,74,0.00,,CLR,0.00,VWS V14.01,2013-02-24 05:30:00,
2013-02-23 21:40:00,50.4,42.0,29.99,NW,307,0.0,4.3,73,0.00,,CLR,0.00,VWS V14.01,2013-02-24 05:40:00,
2013-02-23 21:50:00,50.2,42.2,30.02,East,93,0.0,4.8,74,0.00,,CLR,0.00,VWS V14.01,2013-02-24 05:50:00,
2013-02-23 22:00:00,49.6,42.4,30.02,North,2,0.0,4.3,76,0.00,,CLR,0.00,VWS V14.01,2013-02-24 06:00:00,
2013-02-23 22:10:00,49.1,42.2,30.02,NW,315,3.2,4.8,77,0.00,,CLR,0.00,VWS V14.01,2013-02-24 06:10:00,
2013-02-23 22:20:00,48.9,42.4,30.02,NW,314,3.2,4.3,78,0.00,,CLR,0.00,VWS V14.01,2013-02-24 06:20:00,
2013-02-23 22:30:00,48.7,42.5,30.02,WNW,286,3.2,4.8,79,0.00,,CLR,0.00,VWS V14.01,2013-02-24 06:30:00,
2013-02-23 22:40:00,48.7,42.2,30.02,West,264,0.0,4.8,78,0.00,,CLR,0.00,VWS V14.01,2013-02-24 06:40:00,
2013-02-23 22:50:00,48.4,41.8,30.05,NNW,336,0.0,6.4,78,0.00,,CLR,0.00,VWS V14.01,2013-02-24 06:50:00,
2013-02-23 23:00:00,48.2,41.7,30.05,NNW,341,0.0,4.8,78,0.00,,CLR,0.00,VWS V14.01,2013-02-24 07:00:00,
2013-02-23 23:10:00,48.2,41.7,30.05,West,263,0.0,3.2,78,0.00,,CLR,0.00,VWS V14.01,2013-02-24 07:10:00,
2013-02-23 23:20:00,47.8,41.7,30.02,NE,51,0.0,4.3,79,0.00,,CLR,0.00,VWS V14.01,2013-02-24 07:20:00,
2013-02-23 23:30:00,47.7,41.2,30.02,NNE,25,0.0,3.2,78,0.00,,CLR,0.00,VWS V14.01,2013-02-24 07:30:00,
2013-02-23 23:40:00,47.3,40.8,30.05,WNW,300,0.0,0.0,78,0.00,,CLR,0.00,VWS V14.01,2013-02-24 07:40:00,
2013-02-23 23:50:00,47.1,40.3,30.05,West,266,2.7,7.5,77,0.00,,CLR,0.00,VWS V14.01,2013-02-24 07:50:00,